SCP
0 0 0 -0 -0 -0 -0 0 0 -0 -0 -0 0 0 0 -0 -0 -0 -0 -0 -0 -0 -0 -0 -0 -0 -0 0 0 0 0 0
0 0 -0 0 -0 0 -0 -0 -0 0 -0 -0 0 0 -0 -0 -0 -0 -0 -0 -0 -0 -0 -0 -0 -0 -0 0 0 0 0 -0
0 -0 0 -0 -0 -0 -0 -0 -0 -0 -0 -0 -0 -0 -0 -0 -0 -0 -0 -0 -0 -0 -0 -0 -0 -0 0 -0 -0 -0 -0 -0
0 -0 -0 -0 -0 0 -0 -0 -0 -0 -0 -0 -0 -0 -0 -0 0 -0 -0 0 0 0 0 0 0 -0 -0 -0 -0 -0 -0 -0
-0 0 -0 -0 -0 -0 -0 -0 -0 -0 -0 -0 -0 -0 -0 -0 -0 -0 -0 0 0 0 0 0 0 -0 -0 -0 -0 -0 -0 -0
-0 0 -0 0 -0 0 -0 -0 -0 -0 0 -0 -0 -0 -0 0 0 0 -0 -0 0 0 0 -0 -0 0 -0 -0 -0 -0 -0 -0
-0 -0 -0 0 -0 -0 -0 -0 -0 -0 -0 -0 -0 -0 -0 0 -0 0 0 -0 0 0 0 -0 -0 -0 -0 0 -0 -0 -0 -0
-0 -0 -0 -0 -0 0 0 0 -0 0 -0 -0 -0 -0 -0 -0 -0 -0 0 -0 0 0 -0 -0 -0 -0 -0 -0 -0 -0 -0 0
-0 0 0 0 0 0 0 -0 -0 -0 -0 -0 -0 -0 -0 -0 -0 -0 0 0 0 0 -0 -0 0 -0 -0 -0 -0 -0 0 0
0 0 -0 -0 0 0 0 -0 0 -0 -0 -0 -0 -0 -0 -0 -0 -0 -0 0 0 -0 -0 0 0 -0 -0 -0 -0 0 0 -0
0 0 -0 0 -0 0 0 0 -0 -0 -0 -0 -0 -0 -0 -0 -0 -0 -0 -0 -0 -0 -0 0 -0 -0 -0 -0 -0 0 0 -0
0 0 -0 0 -0 -0 -0 0 0 -0 -0 -0 -0 -0 -0 -0 -0 -0 -0 -0 -0 -0 -0 -0 0 0 -0 -0 0 -0 0 0
-0 -0 -0 0 -0 0 -0 0 0 0 -0 -0 -0 -0 -0 -0 -0 -0 -0 -0 -0 -0 -0 -0 -0 -0 -0 -0 0 0 0 0
-0 -0 -0 0 0 -0 0 0 0 0 0 0 -0 -0 -0 -0 0 -0 -0 -0 -0 -0 -0 -0 0 0 -0 0 -0 0 -0 0
-0 -0 0 0 -0 -0 0 0 0 0 0 0 0 0 0 -0 -0 -0 -0 -0 0 -0 -0 -0 0 0 0 -0 0 0 0 0
0 -0 0 0 0 -0 0 -0 0 0 0 0 0 0 0 -0 -0 -0 -0 0 0 0 0 -0 0 0 0 -0 -0 -0 0 0
-0 0 0 0 0 0 0 0 0 0 0 0 0 0 0 0 -0 -0 0 0 0 0 0 0 0 0 0 -0 0 0 -0 0
0 0 0 0 0 0 0 0 0 0 0 0 0 0 0 0 0 0 -0 0 0 0 1 1 1 0 0 0 0 0 0 0
0 0 0 0 -0 0 -0 0 0 0 0 0 0 0 0 1 1 1 1 0 0 0 1 1 1 1 1 0 0 0 0 0
0 0 0 -0 0 -0 -0 0 0 -0 0 -0 0 0 0 1 1 0 1 1 0 1 1 1 1 1 1 1 1 1 1 1
Wind_Speed_500mb
11 12 11 27 37 25 26 9 11 32 28 23 17 24 29 39 38 37 28 31 33 31 28 26 25 26 25 25 27 27 28 32
14 42 53 10 30 11 17 28 23 11 29 23 19 16 26 41 40 34 35 34 29 29 28 27 26 28 28 28 29 30 33 33
27 41 13 25 21 13 28 34 19 43 34 28 18 22 37 42 33 35 41 29 29 29 28 28 29 31 31 31 32 34 35 31
27 10 24 26 22 11 26 34 19 38 37 23 23 33 39 37 32 34 37 24 25 29 28 29 31 33 34 34 36 37 34 29
18 36 32 26 7 31 28 41 26 10 36 25 30 33 36 33 33 35 30 18 28 30 31 32 35 37 37 38 38 37 33 28
24 18 18 15 32 10 36 24 26 27 17 26 37 36 35 34 34 31 27 18 25 28 31 34 37 39 40 40 39 36 32 27
28 46 52 15 27 25 8 27 30 26 26 35 39 39 35 35 34 31 31 23 28 28 28 30 36 41 43 41 38 34 30 25
22 20 17 18 22 21 15 25 40 35 32 36 40 40 39 36 35 32 31 29 31 31 30 33 30 40 41 39 36 32 28 24
17 21 21 19 7 6 5 7 34 46 38 36 40 38 38 35 33 33 32 32 33 37 33 37 33 38 38 37 35 33 29 28
7 15 10 6 12 1 5 8 21 44 41 41 39 37 37 35 33 34 35 35 37 40 45 40 36 34 28 28 28 28 28 30
12 11 17 5 14 13 20 21 30 39 37 38 39 37 35 33 33 37 39 40 41 41 43 44 39 33 30 26 24 21 21 30
26 22 27 20 24 19 16 24 27 36 35 34 36 37 37 36 37 41 44 46 47 44 54 44 37 37 41 34 28 30 29 29
32 35 32 21 16 27 22 35 26 35 34 34 32 34 39 42 44 46 51 50 52 49 55 47 53 45 42 38 38 36 33 30
34 39 40 12 27 39 35 32 31 34 32 38 36 34 36 42 46 50 53 58 58 53 53 59 57 55 49 39 38 36 37 38
40 38 30 23 24 31 31 31 25 39 35 38 42 40 43 43 51 56 57 60 62 59 56 54 56 56 55 44 43 39 38 36
25 36 22 19 32 26 27 45 31 26 31 43 45 53 53 49 50 55 61 65 67 64 61 55 62 56 55 52 48 47 41 42
29 15 19 11 17 32 37 33 35 24 29 34 47 54 62 57 55 55 61 66 72 72 69 62 63 64 57 61 58 55 55 50
29 28 27 31 31 30 29 43 31 28 22 28 34 46 67 64 62 64 65 68 69 73 71 68 68 69 66 57 56 55 55 55
26 25 23 23 30 33 35 49 32 39 16 17 27 21 61 70 66 64 66 70 71 72 76 76 66 61 63 59 57 57 62 61
22 24 18 24 28 28 38 34 29 36 12 32 12 28 43 57 67 64 58 59 69 68 68 76 78 66 74 75 74 76 64 65
Wind_Direction_500mb
77 277 277 70 80 87 97 99 87 105 66 44 85 104 124 134 142 129 138 142 141 148 151 151 149 144 145 149 151 152 151 150
166 218 237 84 99 94 115 115 74 120 92 80 87 116 136 141 139 132 137 161 144 150 152 153 152 148 150 154 155 155 154 152
298 256 168 75 62 12 88 77 55 72 72 93 93 113 135 145 141 141 150 173 155 154 156 158 156 154 156 158 157 157 156 155
243 182 114 85 80 84 99 73 71 109 102 96 124 130 141 146 144 146 164 188 169 160 162 160 159 159 160 161 160 159 159 161
309 338 88 95 62 83 74 62 48 29 90 117 136 143 147 149 148 144 146 184 170 166 165 162 162 162 163 163 163 162 163 164
151 186 350 123 92 80 85 82 97 30 108 144 149 152 153 154 154 154 157 153 164 169 167 165 164 163 164 165 165 165 166 164
233 124 230 165 121 98 93 111 74 66 99 138 150 154 157 159 160 159 163 154 161 166 168 159 165 166 166 168 168 169 168 162
25 25 90 88 70 126 194 157 127 109 112 137 150 157 162 166 169 167 170 162 163 167 168 164 170 169 170 171 172 171 169 152
100 29 341 64 177 60 82 248 154 136 138 147 155 162 166 172 174 174 173 169 166 172 163 168 180 173 173 175 176 178 171 162
39 137 238 311 22 292 168 1 96 131 146 153 162 168 172 175 175 173 173 171 168 175 163 175 200 182 171 180 180 184 182 166
229 235 232 66 263 213 280 151 121 132 153 160 164 171 174 177 175 173 172 174 173 179 164 177 198 169 181 183 191 184 206 198
291 235 251 209 241 221 224 146 137 146 165 170 172 175 174 178 176 175 176 178 178 184 173 180 184 172 188 188 193 195 213 221
256 255 248 248 273 259 263 159 159 160 174 178 183 183 181 181 180 179 179 182 186 186 191 180 181 186 187 196 202 198 215 223
261 246 247 197 272 278 197 161 171 176 180 181 183 192 189 187 186 186 184 189 188 189 209 185 196 190 188 197 197 205 205 219
246 251 223 195 246 271 158 175 209 187 187 187 182 187 190 193 194 193 191 195 191 192 211 203 199 199 190 193 208 204 209 215
254 266 188 230 271 249 212 233 199 211 213 192 185 183 192 193 199 201 196 201 200 203 197 217 204 207 205 195 209 203 213 215
308 322 312 239 277 294 295 273 268 193 231 226 188 188 189 191 197 202 205 206 208 201 200 211 219 212 205 208 205 212 202 217
291 302 299 290 276 258 262 268 265 273 267 258 207 185 184 190 194 202 209 212 215 211 210 205 219 225 223 214 219 217 220 213
268 286 290 278 261 259 254 262 244 265 233 307 300 225 185 185 193 200 208 216 222 225 220 215 211 222 228 223 218 224 225 224
267 277 272 285 303 244 218 222 238 243 222 240 343 257 189 185 192 196 204 221 227 234 238 232 224 217 226 224 218 216 222 229
Wind_Speed_850mb
11 12 11 27 37 25 26 9 11 32 28 23 17 24 29 39 38 37 28 31 33 31 28 26 25 26 25 25 27 27 28 32
14 42 53 10 30 11 17 28 23 11 29 23 19 16 26 41 40 34 35 34 29 29 28 27 26 28 28 28 29 30 33 33
27 41 13 25 21 13 28 34 19 43 34 28 18 22 37 42 33 35 41 29 29 29 28 28 29 31 31 31 32 34 35 31
27 10 24 26 22 11 26 34 19 38 37 23 23 33 39 37 32 34 37 24 25 29 28 29 31 33 34 34 36 37 34 29
18 36 32 26 7 31 28 41 26 10 36 25 30 33 36 33 33 35 30 18 28 30 31 32 35 37 37 38 38 37 33 28
24 18 18 15 32 10 36 24 26 27 17 26 37 36 35 34 34 31 27 18 25 28 31 34 37 39 40 40 39 36 32 27
28 46 52 15 27 25 8 27 30 26 26 35 39 39 35 35 34 31 31 23 28 28 28 30 36 41 43 41 38 34 30 25
22 20 17 18 22 21 15 25 40 35 32 36 40 40 39 36 35 32 31 29 31 31 30 33 30 40 41 39 36 32 28 24
17 21 21 19 7 6 5 7 34 46 38 36 40 38 38 35 33 33 32 32 33 37 33 37 33 38 38 37 35 33 29 28
7 15 10 6 12 1 5 8 21 44 41 41 39 37 37 35 33 34 35 35 37 40 45 40 36 34 28 28 28 28 28 30
12 11 17 5 14 13 20 21 30 39 37 38 39 37 35 33 33 37 39 40 41 41 43 44 39 33 30 26 24 21 21 30
26 22 27 20 24 19 16 24 27 36 35 34 36 37 37 36 37 41 44 46 47 44 54 44 37 37 41 34 28 30 29 29
32 35 32 21 16 27 22 35 26 35 34 34 32 34 39 42 44 46 51 50 52 49 55 47 53 45 42 38 38 36 33 30
34 39 40 12 27 39 35 32 31 34 32 38 36 34 36 42 46 50 53 58 58 53 53 59 57 55 49 39 38 36 37 38
40 38 30 23 24 31 31 31 25 39 35 38 42 40 43 43 51 56 57 60 62 59 56 54 56 56 55 44 43 39 38 36
25 36 22 19 32 26 27 45 31 26 31 43 45 53 53 49 50 55 61 65 67 64 61 55 62 56 55 52 48 47 41 42
29 15 19 11 17 32 37 33 35 24 29 34 47 54 62 57 55 55 61 66 72 72 69 62 63 64 57 61 58 55 55 50
29 28 27 31 31 30 29 43 31 28 22 28 34 46 67 64 62 64 65 68 69 73 71 68 68 69 66 57 56 55 55 55
26 25 23 23 30 33 35 49 32 39 16 17 27 21 61 70 66 64 66 70 71 72 76 76 66 61 63 59 57 57 62 61
22 24 18 24 28 28 38 34 29 36 12 32 12 28 43 57 67 64 58 59 69 68 68 76 78 66 74 75 74 76 64 65
Wind_Direction_850mb
77 277 277 70 80 87 97 99 87 105 66 44 85 104 124 134 142 129 138 142 141 148 151 151 149 144 145 149 151 152 151 150
166 218 237 84 99 94 115 115 74 120 92 80 87 116 136 141 139 132 137 161 144 150 152 153 152 148 150 154 155 155 154 152
298 256 168 75 62 12 88 77 55 72 72 93 93 113 135 145 141 141 150 173 155 154 156 158 156 154 156 158 157 157 156 155
243 182 114 85 80 84 99 73 71 109 102 96 124 130 141 146 144 146 164 188 169 160 162 160 159 159 160 161 160 159 159 161
309 338 88 95 62 83 74 62 48 29 90 117 136 143 147 149 148 144 146 184 170 166 165 162 162 162 163 163 163 162 163 164
151 186 350 123 92 80 85 82 97 30 108 144 149 152 153 154 154 154 157 153 164 169 167 165 164 163 164 165 165 165 166 164
233 124 230 165 121 98 93 111 74 66 99 138 150 154 157 159 160 159 163 154 161 166 168 159 165 166 166 168 168 169 168 162
25 25 90 88 70 126 194 157 127 109 112 137 150 157 162 166 169 167 170 162 163 167 168 164 170 169 170 171 172 171 169 152
100 29 341 64 177 60 82 248 154 136 138 147 155 162 166 172 174 174 173 169 166 172 163 168 180 173 173 175 176 178 171 162
39 137 238 311 22 292 168 1 96 131 146 153 162 168 172 175 175 173 173 171 168 175 163 175 200 182 171 180 180 184 182 166
229 235 232 66 263 213 280 151 121 132 153 160 164 171 174 177 175 173 172 174 173 179 164 177 198 169 181 183 191 184 206 198
291 235 251 209 241 221 224 146 137 146 165 170 172 175 174 178 176 175 176 178 178 184 173 180 184 172 188 188 193 195 213 221
256 255 248 248 273 259 263 159 159 160 174 178 183 183 181 181 180 179 179 182 186 186 191 180 181 186 187 196 202 198 215 223
261 246 247 197 272 278 197 161 171 176 180 181 183 192 189 187 186 186 184 189 188 189 209 185 196 190 188 197 197 205 205 219
246 251 223 195 246 271 158 175 209 187 187 187 182 187 190 193 194 193 191 195 191 192 211 203 199 199 190 193 208 204 209 215
254 266 188 230 271 249 212 233 199 211 213 192 185 183 192 193 199 201 196 201 200 203 197 217 204 207 205 195 209 203 213 215
308 322 312 239 277 294 295 273 268 193 231 226 188 188 189 191 197 202 205 206 208 201 200 211 219 212 205 208 205 212 202 217
291 302 299 290 276 258 262 268 265 273 267 258 207 185 184 190 194 202 209 212 215 211 210 205 219 225 223 214 219 217 220 213
268 286 290 278 261 259 254 262 244 265 233 307 300 225 185 185 193 200 208 216 222 225 220 215 211 222 228 223 218 224 225 224
267 277 272 285 303 244 218 222 238 243 222 240 343 257 189 185 192 196 204 221 227 234 238 232 224 217 226 224 218 216 222 229